Location: Voyageurs National Park
(48.5020°N, 92.9292°W)
Time: 10:24:09
(UTC-05:00)

Daily predictions for brighter satellites

Satellite Brightness Start Highest point End
(mag) Time Altitude Azimuth Time Altitude Azimuth Time Altitude Azimuth
Cosmos 1727 Rocket 4.1 18:25:20 10° N 18:31:43 72° ENE 18:38:02 10° SSE
IDEFIX/ARIANE 42P 4.5 18:28:12 10° SSW 18:33:03 37° W 18:37:56 10° NNW
Gbstr 26 Del rocket 3.7 18:29:48 10° WNW 18:34:23 72° SSW 18:40:04 10° SE
Cosmos 1842 Rocket 3.6 18:31:21 10° S 18:35:44 60° E 18:40:06 10° NNE
APEX 3.8 18:35:05 10° SSE 18:37:28 22° ESE 18:39:43 10° ENE
Aureole 2 4.4 18:34:54 10° NNW 18:38:01 82° WSW 18:41:31 10° SSE
CSL-04 Rocket 4.1 18:33:01 10° S 18:38:19 67° WSW 18:43:37 10° NNW
Cosmos 1500 Rocket 3.5 18:37:35 10° N 18:41:58 86° E 18:46:17 10° S
Aureole 1 Rocket 4.1 18:36:42 10° SW 18:42:17 57° WNW 18:46:32 10° NNE
ALOS 3.1 18:38:26 10° SE 18:42:29 30° ENE 18:46:32 10° N
Cosmos 1420 Rocket 4.1 18:38:00 10° NNW 18:43:22 88° ENE 18:48:39 10° SSE
Cosmos 1400 Rocket 3.5 18:40:44 10° NNW 18:44:43 59° W 18:48:36 10° S
FENGYUN 3A 4.3 18:40:09 10° SE 18:44:59 35° ENE 18:49:52 10° N
Abrixas 3.8 18:44:54 10° SSW 18:46:19 16° SSE 18:47:44 10° ESE
CORIOLIS 4.3 18:41:09 10° SSE 18:46:33 86° WSW 18:52:02 10° NNW
COSMOS 2428 2.7 18:41:55 10° NNW 18:47:39 79° ENE 18:53:20 10° SSE
Cosmos 2333 Rocket 2.5 18:44:42 10° NNW 18:50:17 49° NE 18:55:51 10° SE
NOSS 0 Rocket 4.2 18:46:21 10° NNW 18:52:21 49° NE 18:58:17 10° SE
Cosmos 2219 3.7 18:48:40 10° S 18:53:56 38° ESE 18:59:11 10° NE
Cosmos 1833 4.3 18:48:34 10° SSW 18:54:15 84° WNW 18:59:55 10° NNE
ERS-2 2.3 18:51:31 10° S 18:55:12 77° WSW 18:58:56 10° NNW
Cosmos 2297 Rocket 3.8 18:56:39 10° SE 18:59:16 13° E 19:00:57 12° ENE
Cosmos 1726 3.0 18:56:47 10° SSE 18:59:59 28° E 19:03:10 10° NNE
Cosmos 2058 3.6 18:56:16 10° NNW 19:00:24 59° W 19:04:28 10° S
Sich 1 3.7 18:58:42 10° N 19:02:44 34° ENE 19:06:44 10° SE
SL-8 R/B 3.8 18:59:28 10° WSW 19:04:18 78° SSE 19:08:21 15° E
Cosmos 2151 3.9 19:00:26 10° NNW 19:04:37 53° W 19:08:45 10° S
Cosmos 44 3.0 19:03:11 10° SSW 19:07:28 60° ESE 19:11:45 10° NE
MOS 1 4.3 19:02:44 10° SSE 19:08:25 84° ENE 19:14:09 10° NNW
NOAA 12 4.2 19:03:19 10° SSE 19:08:30 57° ENE 19:13:43 10° N
Cosmos 1331 Rocket 4.3 19:04:35 10° NNW 19:09:37 44° ENE 19:14:33 10° SE
Thor Agena Rocket 4.5 19:05:50 10° NE 19:09:56 24° E 19:14:00 10° SSE
EO 1 Del DPAF 3.2 19:06:31 10° NNE 19:10:22 63° ESE 19:14:10 10° S
Landsat 4 3.9 19:06:58 10° N 19:10:42 74° WNW 19:14:24 10° SSW
COSMO-SKYMED 1 2.6 19:07:39 10° NNE 19:11:57 56° E 19:16:13 10° S
MONITOR-E 4.0 19:09:04 10° SSE 19:12:09 82° ENE 19:15:15 10° N
Cosmos 2219 Rocket 2.1 19:10:20 10° NNW 19:15:58 82° ENE 19:21:36 10° SSE
MTI 3.9 19:13:36 10° N 19:16:50 79° WNW 19:20:02 10° SSW
METEOR-M 4.2 19:12:38 10° SSE 19:17:59 85° WSW 19:23:22 10° NNW
Meteor 1-28 Rocket 3.7 19:16:17 10° N 19:20:03 61° WNW 19:23:45 10° SSW
Cosmos 1805 Rocket 3.5 19:16:52 10° N 19:21:17 75° E 19:25:41 10° SSE
Resurs 01 Rocket 3.2 19:21:17 16° ENE 19:21:20 16° ENE 19:24:04 10° NNE
Abrixas rocket 2.2 19:18:48 10° W 19:22:06 74° SSW 19:23:56 24° ESE
CZ-4 R/B 3.2 19:19:42 10° SSW 19:23:32 35° W 19:27:21 10° NNW
BREEZE-M DEB (TANK) 3.7 19:14:35 10° W 19:27:06 72° S 19:29:58 22° ESE
Aureole 2 Rocket 3.1 19:23:16 10° NNW 19:27:11 70° WSW 19:31:14 10° SSE
FengYun 1-2 T 4.4 19:24:30 10° SE 19:29:44 48° ENE 19:35:00 10° N
CZ-4C R/B 2.2 19:24:41 10° SSW 19:29:55 67° SE 19:35:47 11° NE
Cosmos 1666 Rocket 3.5 19:26:33 10° N 19:30:52 61° ENE 19:35:08 10° SSE
Cosmos 1633 Rocket 3.1 19:30:13 10° N 19:34:36 56° ENE 19:38:56 10° SSE
Cosmos 1535 Rocket 4.4 19:28:55 10° S 19:34:57 65° E 19:41:00 10° NNE
Cosmos 2228 Rocket 4.4 19:32:03 10° SE 19:38:12 17° NE 19:39:34 10° NNE
YAOGAN 1 4.1 19:32:12 10° SSW 19:36:14 38° W 19:40:19 10° NNW
Cosmos 1328 Rocket 4.3 19:33:39 10° SSE 19:37:29 30° E 19:41:19 10° NNE
FREGAT/IRIS 2.8 19:37:52 42° E 19:38:13 45° ENE 19:41:07 10° N
Cosmos 1269 Rocket 4.0 19:33:12 10° SSW 19:38:29 86° ESE 19:43:49 10° NNE
Cosmos 1933 Rocket 4.3 19:34:45 10° N 19:38:35 29° ENE 19:39:03 29° E
Cosmos 1302 Rocket 4.3 19:34:46 10° NNW 19:39:49 46° ENE 19:42:54 22° ESE
BREEZE-M R/B 4.2 19:37:48 10° S 19:39:11 17° SSE 19:39:11 17° SSE
Iridium 4 Rocket 3.8 19:35:43 10° S 19:41:29 88° W 19:47:27 10° N
USA 234 3.9 19:39:19 19° ENE 19:43:38 43° N 19:49:45 10° WNW
Cosmos 2084 4.3 19:42:54 10° NW 19:46:31 43° SW 19:50:12 10° SSE
Cosmos 44 Rocket 3.5 19:44:18 10° SW 19:48:59 67° NW 19:52:58 14° NNE
Cosmos 494 Rocket 4.1 19:45:56 10° S 19:50:48 48° ESE 19:54:54 15° NE
In-Cosmos 22 Rocket 4.2 19:46:07 10° N 19:51:54 78° ENE 19:57:44 10° SSE
Spot 2 Rocket 4.3 19:52:29 29° ENE 19:52:39 30° ENE 19:57:01 10° N
Cosmos 2221 3.6 19:48:45 10° SSW 19:52:57 48° WNW 19:57:12 10° N
Cosmos 2237 Rocket 2.2 19:49:06 10° NNW 19:54:51 89° ENE 20:00:17 11° SSE
SJ-6B 2.6 19:56:40 49° ESE 19:57:19 59° ENE 20:01:01 10° N
H-2A R/B 2.6 19:55:28 15° SSE 19:58:37 79° ENE 20:02:34 10° N
Lacrosse 5 rocket 2.6 19:55:24 10° NW 19:59:11 28° N 20:00:02 26° NNE
Cosmos 1110 Rocket 4.3 19:54:00 10° NNW 19:59:18 70° WSW 20:04:33 10° SSE
Cosmos 1934 Rocket 4.0 19:54:23 10° S 20:00:46 85° E 20:07:10 10° N
Cosmos 1821 Rocket 4.2 19:58:23 10° SSW 20:04:34 72° W 20:10:54 10° N
Cosmos 2227 Rocket 2.3 19:59:56 10° S 20:05:23 52° ESE 20:08:05 29° NE
MOS 1-B Rocket 4.0 20:03:12 24° SE 20:06:39 58° ENE 20:13:01 10° N
SL-16 R/B 2.3 20:02:51 10° NNW 20:08:27 54° ENE 20:09:56 42° ESE
Cosmos 1300 3.0 20:06:16 10° SSW 20:10:04 67° W 20:13:55 10° N
Cosmos 2098 Rocket 4.4 20:05:10 10° SSW 20:10:12 57° WNW 20:16:35 10° N
USA 32 3.9 20:05:03 10° N 20:10:17 66° E 20:13:52 20° SSE
Cosmos 1892 3.5 20:09:30 10° N 20:12:01 37° NNE 20:12:01 37° NNE
ATLAS 5 CENTAUR R/B 3.6 20:11:48 10° NNW 20:16:15 24° NNE 20:17:13 23° NE
Cosmos 1980 4.2 20:13:59 10° NW 20:19:31 58° WSW 20:24:57 10° S
ALOS 3.8 20:15:31 10° SSW 20:19:49 37° W 20:24:10 10° NNW
Meteor 2-10 4.4 20:22:26 10° SSW 20:27:26 61° WNW 20:32:37 10° N
SWAS 4.4 20:23:13 10° SSW 20:27:24 85° WSW 20:27:24 85° WSW
Envisat 3.1 20:28:03 57° NE 20:28:03 57° NE 20:32:42 10° N
CZ-2D R/B 4.2 20:29:19 39° N 20:29:19 39° N 20:31:50 10° N
Cosmos 1470 Rocket 3.6 20:24:56 10° NNW 20:29:26 78° W 20:30:27 53° S
Meteor 2-3 Rocket 3.7 20:27:10 10° NNW 20:32:58 89° W 20:35:42 33° S
Cosmos 2251 Rocket 3.4 20:28:04 10° SSW 20:33:22 80° ESE 20:34:47 50° NNE
Cosmos 2333 Rocket 3.9 20:29:19 10° NW 20:34:22 32° WSW 20:39:25 10° SSW
Cosmos 2219 4.4 20:32:37 10° WSW 20:38:04 42° NW 20:43:30 10° NNE
Cosmos 1605 Rocket 4.1 20:33:04 10° SSW 20:39:09 74° W 20:45:16 10° N
BREEZE-M DEB (TANK) 4.1 20:25:05 10° WNW 20:40:33 53° SW 20:42:21 38° S
Cosmos 2297 Rocket 2.0 20:36:44 10° SSW 20:42:22 81° ESE 20:42:51 74° ENE
Cosmos 1153 Rocket 4.3 20:39:48 10° S 20:45:57 88° E 20:52:15 10° N
SL-8 R/B 3.9 20:42:02 10° W 20:46:19 70° W 20:46:19 70° W
Thor Agena Rocket 4.2 20:44:36 10° N 20:49:32 51° WNW 20:54:24 10° SW
Cosmos 2082 3.6 20:48:12 10° SSW 20:53:56 87° WNW 20:54:11 82° N
Meteor 2-17 Rocket 4.3 20:47:58 10° S 20:54:03 89° W 21:00:12 10° N
Resurs 01 Rocket 2.8 20:58:52 39° NNW 20:58:52 39° NNW 21:01:44 10° NNW
CZ-4C R/B 3.6 21:13:48 10° W 21:18:56 35° NNW 21:21:00 28° N
USA 234 3.5 21:26:41 62° N 21:26:41 62° N 21:32:35 10° NW
Lacrosse 5 rocket 4.2 21:34:49 10° NW 21:35:43 16° NW 21:35:43 16° NW
Cosmos 2227 Rocket 3.7 21:44:38 10° WSW 21:49:42 33° NW 21:50:00 32° NW
SL-16 R/B 3.9 21:47:28 10° NW 21:51:50 28° W 21:51:50 28° W
ATLAS 5 CENTAUR R/B 4.0 21:56:14 10° NW 21:58:45 27° NNW 21:58:45 27° NNW
